Time,TemperatureF,DewpointF,PressureIn,WindDirection,WindDirectionDegrees,WindSpeedMPH,WindSpeedGustMPH,Humidity,HourlyPrecipIn,Conditions,Clouds,dailyrainin,SoftwareType,DateUTC
2013-02-01 00:00:00,36.6,24.4,30.00,WSW,240,6.9,9.8,61,0.00,RA,,0.00,WeatherDisplay:10.37,2013-02-01 05:00:00,
2013-02-01 00:03:00,36.6,24.4,30.00,WSW,240,6.9,9.8,61,0.00,RA,,0.00,WeatherDisplay:10.37,2013-02-01 05:03:00,
2013-02-01 00:08:00,38.0,25.7,30.00,WSW,246,11.5,11.5,61,0.00,RA,,0.00,WeatherDisplay:10.37,2013-02-01 05:08:00,
2013-02-01 00:13:00,38.0,25.7,30.00,WSW,242,9.2,9.2,61,0.00,CLR,,0.00,WeatherDisplay:10.37,2013-02-01 05:13:00,
2013-02-01 00:18:00,38.0,25.7,30.00,WSW,244,4.6,4.6,61,0.00,CLR,,0.00,WeatherDisplay:10.37,2013-02-01 05:18:00,
2013-02-01 00:23:00,38.0,25.7,30.00,WSW,244,4.6,4.6,61,0.00,CLR,,0.00,WeatherDisplay:10.37,2013-02-01 05:23:00,
2013-02-01 00:28:00,38.0,25.7,30.00,WSW,244,4.6,4.6,61,0.00,CLR,,0.00,WeatherDisplay:10.37,2013-02-01 05:28:00,
2013-02-01 00:33:00,38.0,25.7,30.00,WSW,244,4.6,4.6,61,0.00,CLR,,0.00,WeatherDisplay:10.37,2013-02-01 05:33:00,
2013-02-01 00:38:00,37.9,25.6,30.00,WSW,242,11.5,11.5,61,0.00,CLR,,0.00,WeatherDisplay:10.37,2013-02-01 05:38:00,
2013-02-01 00:43:00,38.0,25.7,30.00,WSW,244,4.6,4.6,61,0.00,CLR,,0.00,WeatherDisplay:10.37,2013-02-01 05:43:00,
2013-02-01 00:48:00,38.0,25.7,30.00,WSW,244,4.6,4.6,61,0.00,CLR,,0.00,WeatherDisplay:10.37,2013-02-01 05:48:00,
2013-02-01 00:53:00,38.0,25.7,30.00,WSW,244,4.6,4.6,61,0.00,CLR,,0.00,WeatherDisplay:10.37,2013-02-01 05:53:00,
2013-02-01 00:58:00,38.0,25.7,30.00,WSW,244,4.6,4.6,61,0.00,CLR,,0.00,WeatherDisplay:10.37,2013-02-01 05:58:00,
2013-02-01 01:03:00,38.0,25.7,29.99,WSW,237,13.8,13.8,61,0.00,CLR,,0.00,WeatherDisplay:10.37,2013-02-01 06:03:00,
2013-02-01 01:08:00,38.3,26.0,29.98,SW,228,9.2,9.2,61,0.00,CLR,,0.00,WeatherDisplay:10.37,2013-02-01 06:08:00,
2013-02-01 01:13:00,38.3,26.4,29.98,SW,223,15.0,15.0,62,0.00,CLR,,0.00,WeatherDisplay:10.37,2013-02-01 06:13:00,
2013-02-01 01:18:00,38.5,26.2,29.97,SW,236,15.0,15.0,61,0.00,CLR,,0.00,WeatherDisplay:10.37,2013-02-01 06:18:00,
2013-02-01 01:23:00,38.7,26.4,29.97,WSW,244,11.5,11.5,61,0.00,CLR,,0.00,WeatherDisplay:10.37,2013-02-01 06:23:00,
2013-02-01 01:28:00,38.8,26.1,29.97,SW,223,17.3,17.3,60,0.00,CLR,,0.00,WeatherDisplay:10.37,2013-02-01 06:28:00,
2013-02-01 01:33:00,38.2,25.9,29.98,SW,230,5.8,8.0,61,0.00,CLR,,0.00,WeatherDisplay:10.37,2013-02-01 06:33:00,
2013-02-01 01:38:00,38.2,25.9,29.98,SW,230,5.8,8.0,61,0.00,CLR,,0.00,WeatherDisplay:10.37,2013-02-01 06:38:00,
2013-02-01 01:43:00,38.2,25.9,29.98,SW,230,5.8,8.0,61,0.00,CLR,,0.00,WeatherDisplay:10.37,2013-02-01 06:43:00,
2013-02-01 01:48:00,39.3,26.6,29.97,WSW,249,25.3,25.3,60,0.00,CLR,,0.00,WeatherDisplay:10.37,2013-02-01 06:48:00,
2013-02-01 01:53:00,39.5,26.3,29.96,WSW,238,16.1,16.1,59,0.00,CLR,,0.00,WeatherDisplay:10.37,2013-02-01 06:53:00,
2013-02-01 01:58:00,39.5,26.8,29.96,SW,230,17.3,17.3,60,0.00,CLR,,0.00,WeatherDisplay:10.37,2013-02-01 06:58:00,
2013-02-01 02:03:00,39.6,26.8,29.95,SW,226,15.0,15.0,60,0.00,CLR,,0.00,WeatherDisplay:10.37,2013-02-01 07:03:00,
2013-02-01 02:08:00,39.6,26.8,29.95,SW,217,23.0,23.0,60,0.00,CLR,,0.00,WeatherDisplay:10.37,2013-02-01 07:08:00,
2013-02-01 02:13:00,39.6,26.8,29.95,SW,217,25.3,25.3,60,0.00,CLR,,0.00,WeatherDisplay:10.37,2013-02-01 07:13:00,
2013-02-01 02:18:00,39.4,26.7,29.96,SW,228,8.1,14.0,60,0.00,CLR,,0.00,WeatherDisplay:10.37,2013-02-01 07:18:00,
2013-02-01 02:23:00,39.8,27.0,29.95,SW,234,16.1,16.1,60,0.00,CLR,,0.00,WeatherDisplay:10.37,2013-02-01 07:23:00,
2013-02-01 02:28:00,39.8,27.0,29.95,WSW,243,16.1,16.1,60,0.00,CLR,,0.00,WeatherDisplay:10.37,2013-02-01 07:28:00,
2013-02-01 02:33:00,39.8,27.0,29.94,West,268,17.3,17.3,60,0.00,CLR,,0.00,WeatherDisplay:10.37,2013-02-01 07:33:00,
2013-02-01 02:38:00,39.8,27.0,29.94,SW,223,11.5,11.5,60,0.00,CLR,,0.00,WeatherDisplay:10.37,2013-02-01 07:38:00,
2013-02-01 02:43:00,39.8,27.0,29.94,SW,220,16.1,16.1,60,0.00,CLR,,0.00,WeatherDisplay:10.37,2013-02-01 07:43:00,
2013-02-01 02:48:00,39.8,27.0,29.95,West,260,11.5,11.5,60,0.00,CLR,,0.00,WeatherDisplay:10.37,2013-02-01 07:48:00,
2013-02-01 02:53:00,39.8,27.0,29.94,SSW,211,21.0,21.0,60,0.00,CLR,,0.00,WeatherDisplay:10.37,2013-02-01 07:53:00,
2013-02-01 02:58:00,39.8,27.0,29.95,West,260,11.5,11.5,60,0.00,CLR,,0.00,WeatherDisplay:10.37,2013-02-01 07:58:00,
2013-02-01 03:03:00,39.8,27.4,29.93,SW,230,15.0,15.0,61,0.00,CLR,,0.00,WeatherDisplay:10.37,2013-02-01 08:03:00,
2013-02-01 03:08:00,39.8,27.4,29.93,WSW,242,9.2,9.2,61,0.00,CLR,,0.00,WeatherDisplay:10.37,2013-02-01 08:08:00,
2013-02-01 03:13:00,39.8,27.4,29.93,WSW,241,12.7,12.7,61,0.00,CLR,,0.00,WeatherDisplay:10.37,2013-02-01 08:13:00,
2013-02-01 03:18:00,39.7,27.3,29.93,SW,231,18.4,18.4,61,0.00,CLR,,0.00,WeatherDisplay:10.37,2013-02-01 08:18:00,
2013-02-01 03:23:00,39.8,27.4,29.93,WSW,241,12.7,12.7,61,0.00,CLR,,0.00,WeatherDisplay:10.37,2013-02-01 08:23:00,
2013-02-01 03:28:00,39.8,27.4,29.93,WSW,241,12.7,12.7,61,0.00,CLR,,0.00,WeatherDisplay:10.37,2013-02-01 08:28:00,
2013-02-01 03:33:00,39.8,27.4,29.93,WSW,241,12.7,12.7,61,0.00,CLR,,0.00,WeatherDisplay:10.37,2013-02-01 08:33:00,
2013-02-01 03:38:00,39.8,27.4,29.92,SW,235,11.5,11.5,61,0.00,CLR,,0.00,WeatherDisplay:10.37,2013-02-01 08:38:00,
2013-02-01 03:43:00,39.8,27.4,29.91,SSW,210,11.5,11.5,61,0.00,CLR,,0.00,WeatherDisplay:10.37,2013-02-01 08:43:00,
2013-02-01 03:48:00,39.8,27.4,29.91,WSW,250,15.0,15.0,61,0.00,CLR,,0.00,WeatherDisplay:10.37,2013-02-01 08:48:00,
2013-02-01 03:53:00,39.7,27.7,29.91,SW,219,13.8,13.8,62,0.00,CLR,,0.00,WeatherDisplay:10.37,2013-02-01 08:53:00,
2013-02-01 03:58:00,39.6,27.6,29.91,WSW,240,15.0,15.0,62,0.00,CLR,,0.00,WeatherDisplay:10.37,2013-02-01 08:58:00,
2013-02-01 04:03:00,39.6,27.6,29.90,WSW,237,19.6,19.6,62,0.00,CLR,,0.00,WeatherDisplay:10.37,2013-02-01 09:03:00,
2013-02-01 04:08:00,39.6,27.6,29.90,SW,234,11.5,11.5,62,0.00,CLR,,0.00,WeatherDisplay:10.37,2013-02-01 09:08:00,
2013-02-01 04:13:00,39.5,27.5,29.91,SW,214,16.1,16.1,62,0.00,CLR,,0.00,WeatherDisplay:10.37,2013-02-01 09:13:00,
2013-02-01 04:18:00,39.6,27.6,29.91,SSW,211,9.2,10.4,62,0.00,CLR,,0.00,WeatherDisplay:10.37,2013-02-01 09:18:00,
2013-02-01 04:23:00,39.6,27.6,29.91,SSW,211,9.2,10.4,62,0.00,CLR,,0.00,WeatherDisplay:10.37,2013-02-01 09:23:00,
2013-02-01 04:28:00,39.6,27.6,29.91,SSW,211,9.2,10.4,62,0.00,CLR,,0.00,WeatherDisplay:10.37,2013-02-01 09:28:00,
2013-02-01 04:33:00,39.5,27.9,29.91,WSW,245,12.7,12.7,63,0.00,CLR,,0.00,WeatherDisplay:10.37,2013-02-01 09:33:00,
2013-02-01 04:38:00,39.6,28.0,29.92,SW,229,17.0,17.0,63,0.00,CLR,,0.00,WeatherDisplay:10.37,2013-02-01 09:38:00,
2013-02-01 04:43:00,39.7,28.1,29.92,WSW,239,17.3,17.3,63,0.00,CLR,,0.00,WeatherDisplay:10.37,2013-02-01 09:43:00,
2013-02-01 04:48:00,39.6,28.0,29.91,WSW,248,13.8,13.8,63,0.00,CLR,,0.00,WeatherDisplay:10.37,2013-02-01 09:48:00,
2013-02-01 04:53:00,40.0,28.4,29.93,West,278,18.4,18.4,63,0.00,CLR,,0.00,WeatherDisplay:10.37,2013-02-01 09:53:00,
2013-02-01 04:58:00,39.8,27.8,29.93,WSW,239,16.1,17.2,62,0.00,CLR,,0.00,WeatherDisplay:10.37,2013-02-01 09:58:00,
2013-02-01 05:03:00,39.8,27.8,29.93,WSW,239,16.1,17.2,62,0.00,CLR,,0.00,WeatherDisplay:10.37,2013-02-01 10:03:00,
2013-02-01 05:08:00,39.8,27.8,29.93,WSW,239,16.1,17.2,62,0.00,CLR,,0.00,WeatherDisplay:10.37,2013-02-01 10:08:00,
2013-02-01 05:13:00,39.8,27.8,29.93,WSW,239,16.1,17.2,62,0.00,CLR,,0.00,WeatherDisplay:10.37,2013-02-01 10:13:00,
2013-02-01 05:18:00,39.8,27.8,29.93,WSW,239,16.1,17.2,62,0.00,CLR,,0.00,WeatherDisplay:10.37,2013-02-01 10:18:00,
2013-02-01 05:23:00,39.3,28.1,29.95,SW,234,10.4,11.1,64,0.00,CLR,,0.00,WeatherDisplay:10.37,2013-02-01 10:23:00,
2013-02-01 05:28:00,39.3,28.1,29.95,SW,234,10.4,11.1,64,0.00,CLR,,0.00,WeatherDisplay:10.37,2013-02-01 10:28:00,
2013-02-01 05:33:00,39.2,28.4,29.96,West,261,11.5,11.5,65,0.00,CLR,,0.00,WeatherDisplay:10.37,2013-02-01 10:33:00,
2013-02-01 05:38:00,39.3,28.1,29.95,SW,234,10.4,11.1,64,0.00,CLR,,0.00,WeatherDisplay:10.37,2013-02-01 10:38:00,
2013-02-01 05:43:00,39.2,28.4,29.98,West,262,11.5,11.5,65,0.00,CLR,,0.00,WeatherDisplay:10.37,2013-02-01 10:43:00,
2013-02-01 05:48:00,39.2,28.4,29.97,West,264,10.4,10.4,65,0.00,CLR,,0.00,WeatherDisplay:10.37,2013-02-01 10:48:00,
2013-02-01 05:53:00,39.2,28.4,29.98,West,260,9.2,9.2,65,0.00,CLR,,0.00,WeatherDisplay:10.37,2013-02-01 10:53:00,
2013-02-01 05:58:00,39.3,28.5,29.99,West,266,11.5,11.5,65,0.00,CLR,,0.00,WeatherDisplay:10.37,2013-02-01 10:58:00,
2013-02-01 06:03:00,39.3,28.5,29.98,West,269,11.5,11.5,65,0.00,CLR,,0.00,WeatherDisplay:10.37,2013-02-01 11:03:00,
2013-02-01 06:08:00,39.3,28.5,29.98,West,269,11.5,11.5,65,0.00,CLR,,0.00,WeatherDisplay:10.37,2013-02-01 11:08:00,
2013-02-01 06:13:00,40.0,29.2,30.01,WNW,286,16.1,16.1,65,0.00,CLR,,0.00,WeatherDisplay:10.37,2013-02-01 11:13:00,
2013-02-01 06:18:00,40.2,28.2,30.01,NW,322,24.2,24.2,62,0.00,CLR,,0.00,WeatherDisplay:10.37,2013-02-01 11:18:00,
2013-02-01 06:23:00,40.4,28.0,30.02,West,276,20.7,20.7,61,0.00,CLR,,0.00,WeatherDisplay:10.37,2013-02-01 11:23:00,
2013-02-01 06:28:00,40.2,26.6,30.02,NW,311,26.0,26.0,58,0.00,CLR,,0.00,WeatherDisplay:10.37,2013-02-01 11:28:00,
2013-02-01 06:33:00,39.3,28.5,29.98,West,269,11.5,11.5,65,0.00,CLR,,0.00,WeatherDisplay:10.37,2013-02-01 11:33:00,
2013-02-01 06:38:00,39.3,28.5,29.98,West,269,11.5,11.5,65,0.00,CLR,,0.00,WeatherDisplay:10.37,2013-02-01 11:38:00,
2013-02-01 06:43:00,38.8,21.3,30.05,WNW,300,26.5,26.5,49,0.00,CLR,,0.00,WeatherDisplay:10.37,2013-02-01 11:43:00,
2013-02-01 06:48:00,38.3,20.8,30.05,NW,309,24.2,24.2,49,0.00,CLR,,0.00,WeatherDisplay:10.37,2013-02-01 11:48:00,
2013-02-01 06:53:00,37.9,20.9,30.07,NW,307,16.1,16.1,50,0.00,CLR,,0.00,WeatherDisplay:10.37,2013-02-01 11:53:00,
2013-02-01 06:58:00,37.5,21.0,30.07,WNW,298,21.0,21.0,51,0.00,CLR,,0.00,WeatherDisplay:10.37,2013-02-01 11:58:00,
2013-02-01 07:03:00,37.0,21.0,30.08,NNW,330,24.2,24.2,52,0.00,CLR,,0.00,WeatherDisplay:10.37,2013-02-01 12:03:00,
2013-02-01 07:08:00,36.3,19.4,30.09,NW,310,23.0,23.0,50,0.00,CLR,,0.00,WeatherDisplay:10.37,2013-02-01 12:08:00,
2013-02-01 07:13:00,35.7,17.9,30.09,NW,311,21.9,21.9,48,0.00,CLR,,0.00,WeatherDisplay:10.37,2013-02-01 12:13:00,
2013-02-01 07:18:00,37.6,21.5,30.07,NW,322,16.1,16.1,52,0.00,CLR,,0.00,WeatherDisplay:10.37,2013-02-01 12:18:00,
2013-02-01 07:23:00,34.7,15.0,30.11,NW,317,23.0,23.0,44,0.00,CLR,,0.00,WeatherDisplay:10.37,2013-02-01 12:23:00,
2013-02-01 07:28:00,34.3,14.1,30.11,NW,318,20.7,20.7,43,0.00,CLR,,0.00,WeatherDisplay:10.37,2013-02-01 12:28:00,
2013-02-01 07:33:00,37.6,21.5,30.07,NW,322,16.1,16.1,52,0.00,CLR,,0.00,WeatherDisplay:10.37,2013-02-01 12:33:00,
2013-02-01 07:38:00,37.6,21.5,30.07,NW,322,16.1,16.1,52,0.00,CLR,,0.00,WeatherDisplay:10.37,2013-02-01 12:38:00,
2013-02-01 07:43:00,33.1,13.0,30.13,NW,321,19.6,19.6,43,0.00,CLR,,0.00,WeatherDisplay:10.37,2013-02-01 12:43:00,
2013-02-01 07:48:00,37.6,21.5,30.07,NW,322,16.1,16.1,52,0.00,CLR,,0.00,WeatherDisplay:10.37,2013-02-01 12:48:00,
2013-02-01 07:53:00,32.6,12.0,30.14,WNW,302,18.4,18.4,42,0.00,CLR,,0.00,WeatherDisplay:10.37,2013-02-01 12:53:00,
2013-02-01 07:58:00,32.5,12.5,30.14,NW,311,14.0,14.0,43,0.00,CLR,,0.00,WeatherDisplay:10.37,2013-02-01 12:58:00,
2013-02-01 08:03:00,32.4,12.4,30.15,NW,311,18.4,18.4,43,0.00,CLR,,0.00,WeatherDisplay:10.37,2013-02-01 13:03:00,
2013-02-01 08:08:00,32.5,12.5,30.15,NW,315,13.8,13.8,43,0.00,CLR,,0.00,WeatherDisplay:10.37,2013-02-01 13:08:00,
2013-02-01 08:13:00,32.2,12.2,30.16,NW,314,18.0,18.0,43,0.00,CLR,,0.00,WeatherDisplay:10.37,2013-02-01 13:13:00,
2013-02-01 08:18:00,32.5,12.5,30.15,NW,315,13.8,13.8,43,0.00,CLR,,0.00,WeatherDisplay:10.37,2013-02-01 13:18:00,
2013-02-01 08:23:00,32.5,12.5,30.15,NW,315,13.8,13.8,43,0.00,CLR,,0.00,WeatherDisplay:10.37,2013-02-01 13:23:00,
2013-02-01 08:28:00,32.1,12.1,30.17,NNW,331,18.4,18.4,43,0.00,CLR,,0.00,WeatherDisplay:10.37,2013-02-01 13:28:00,
2013-02-01 08:33:00,32.0,10.4,30.18,NW,322,25.3,25.3,40,0.00,CLR,,0.00,WeatherDisplay:10.37,2013-02-01 13:33:00,
2013-02-01 08:38:00,32.1,12.6,30.17,NW,309,11.5,13.9,44,0.00,CLR,,0.00,WeatherDisplay:10.37,2013-02-01 13:38:00,
2013-02-01 08:43:00,31.9,10.8,30.19,NW,310,24.2,24.2,41,0.00,CLR,,0.00,WeatherDisplay:10.37,2013-02-01 13:43:00,
2013-02-01 08:48:00,32.1,12.6,30.17,NW,309,11.5,13.9,44,0.00,CLR,,0.00,WeatherDisplay:10.37,2013-02-01 13:48:00,
2013-02-01 08:53:00,32.1,12.6,30.17,NW,309,11.5,13.9,44,0.00,CLR,,0.00,WeatherDisplay:10.37,2013-02-01 13:53:00,
2013-02-01 08:58:00,31.6,10.6,30.20,NW,305,19.6,19.6,41,0.00,CLR,,0.00,WeatherDisplay:10.37,2013-02-01 13:58:00,
2013-02-01 09:03:00,31.6,10.6,30.20,NW,311,19.6,19.6,41,0.00,CLR,,0.00,WeatherDisplay:10.37,2013-02-01 14:03:00,
2013-02-01 09:08:00,31.6,10.6,30.20,NW,317,13.8,15.6,41,0.00,CLR,,0.00,WeatherDisplay:10.37,2013-02-01 14:08:00,
2013-02-01 09:13:00,31.5,11.0,30.21,NNW,327,19.6,19.6,42,0.00,CLR,,0.00,WeatherDisplay:10.37,2013-02-01 14:13:00,
2013-02-01 09:18:00,31.5,11.0,30.21,NNW,327,19.6,19.6,42,0.00,CLR,,0.00,WeatherDisplay:10.37,2013-02-01 14:18:00,
2013-02-01 09:23:00,31.0,10.6,30.21,NW,319,14.0,14.0,42,0.00,CLR,,0.00,WeatherDisplay:10.37,2013-02-01 14:23:00,
2013-02-01 09:28:00,31.2,10.7,30.22,WNW,286,15.0,15.0,42,0.00,CLR,,0.00,WeatherDisplay:10.37,2013-02-01 14:28:00,
2013-02-01 09:33:00,31.1,10.1,30.21,WNW,290,18.4,18.4,41,0.00,CLR,,0.00,WeatherDisplay:10.37,2013-02-01 14:33:00,
2013-02-01 09:38:00,31.4,10.4,30.23,NW,324,15.0,15.0,41,0.00,CLR,,0.00,WeatherDisplay:10.37,2013-02-01 14:38:00,
2013-02-01 09:43:00,31.4,10.4,30.23,NW,314,16.1,16.1,41,0.00,CLR,,0.00,WeatherDisplay:10.37,2013-02-01 14:43:00,
2013-02-01 09:48:00,31.6,10.6,30.23,NW,304,15.0,15.0,41,0.00,CLR,,0.00,WeatherDisplay:10.37,2013-02-01 14:48:00,
2013-02-01 09:53:00,31.6,10.0,30.23,West,275,12.7,16.0,40,0.00,CLR,,0.00,WeatherDisplay:10.37,2013-02-01 14:53:00,
2013-02-01 09:58:00,31.6,10.0,30.23,West,275,12.7,16.0,40,0.00,CLR,,0.00,WeatherDisplay:10.37,2013-02-01 14:58:00,
2013-02-01 10:03:00,31.6,10.0,30.24,NW,308,13.8,13.8,40,0.00,CLR,,0.00,WeatherDisplay:10.37,2013-02-01 15:03:00,
2013-02-01 10:08:00,31.5,9.4,30.25,WNW,295,16.1,16.1,39,0.00,CLR,,0.00,WeatherDisplay:10.37,2013-02-01 15:08:00,
2013-02-01 10:13:00,31.5,10.5,30.25,NW,311,12.7,12.7,41,0.00,CLR,,0.00,WeatherDisplay:10.37,2013-02-01 15:13:00,
2013-02-01 10:18:00,31.7,10.1,30.25,NW,306,11.5,11.5,40,0.00,CLR,,0.00,WeatherDisplay:10.37,2013-02-01 15:18:00,
2013-02-01 10:23:00,31.5,9.4,30.24,NNW,331,6.9,10.8,39,0.00,CLR,,0.00,WeatherDisplay:10.37,2013-02-01 15:23:00,
2013-02-01 10:28:00,31.5,9.4,30.24,NNW,331,6.9,10.8,39,0.00,CLR,,0.00,WeatherDisplay:10.37,2013-02-01 15:28:00,
2013-02-01 10:33:00,32.1,10.5,30.26,NW,324,6.9,9.3,40,0.00,CLR,,0.00,WeatherDisplay:10.37,2013-02-01 15:33:00,
2013-02-01 10:38:00,32.1,10.5,30.26,NW,324,6.9,9.3,40,0.00,CLR,,0.00,WeatherDisplay:10.37,2013-02-01 15:38:00,
2013-02-01 10:43:00,32.5,10.3,30.27,NW,319,12.7,12.7,39,0.00,CLR,,0.00,WeatherDisplay:10.37,2013-02-01 15:43:00,
2013-02-01 10:48:00,32.5,10.3,30.27,West,269,15.0,15.0,39,0.00,CLR,,0.00,WeatherDisplay:10.37,2013-02-01 15:48:00,
2013-02-01 10:53:00,32.4,12.4,30.27,WNW,296,10.0,10.0,43,0.00,CLR,,0.00,WeatherDisplay:10.37,2013-02-01 15:53:00,
2013-02-01 10:58:00,32.5,10.3,30.27,NW,322,10.4,11.8,39,0.00,CLR,,0.00,WeatherDisplay:10.37,2013-02-01 15:58:00,
2013-02-01 11:03:00,32.5,10.3,30.28,WNW,298,19.6,19.6,39,0.00,CLR,,0.00,WeatherDisplay:10.37,2013-02-01 16:03:00,
2013-02-01 11:08:00,32.5,10.3,30.27,NW,322,10.4,11.8,39,0.00,CLR,,0.00,WeatherDisplay:10.37,2013-02-01 16:08:00,
2013-02-01 11:13:00,32.5,10.3,30.27,NW,322,10.4,11.8,39,0.00,CLR,,0.00,WeatherDisplay:10.37,2013-02-01 16:13:00,
2013-02-01 11:18:00,32.6,10.9,30.28,WNW,296,20.7,20.7,40,0.00,CLR,,0.00,WeatherDisplay:10.37,2013-02-01 16:18:00,
2013-02-01 11:23:00,32.7,9.8,30.29,NW,319,12.7,12.7,38,0.00,CLR,,0.00,WeatherDisplay:10.37,2013-02-01 16:23:00,
2013-02-01 11:28:00,32.5,10.3,30.27,NW,322,10.4,11.8,39,0.00,CLR,,0.00,WeatherDisplay:10.37,2013-02-01 16:28:00,
2013-02-01 11:33:00,32.5,10.3,30.27,NW,322,10.4,11.8,39,0.00,CLR,,0.00,WeatherDisplay:10.37,2013-02-01 16:33:00,
2013-02-01 11:38:00,32.5,10.3,30.27,NW,322,10.4,11.8,39,0.00,CLR,,0.00,WeatherDisplay:10.37,2013-02-01 16:38:00,
2013-02-01 11:43:00,33.5,10.6,30.28,NW,317,12.7,12.7,38,0.00,CLR,,0.00,WeatherDisplay:10.37,2013-02-01 16:43:00,
2013-02-01 11:48:00,32.5,10.3,30.27,NW,322,10.4,11.8,39,0.00,CLR,,0.00,WeatherDisplay:10.37,2013-02-01 16:48:00,
2013-02-01 11:53:00,32.5,10.3,30.27,NW,322,10.4,11.8,39,0.00,CLR,,0.00,WeatherDisplay:10.37,2013-02-01 16:53:00,
2013-02-01 11:58:00,34.1,11.7,30.28,NW,307,15.0,15.0,39,0.00,CLR,,0.00,WeatherDisplay:10.37,2013-02-01 16:58:00,
2013-02-01 12:03:00,32.5,10.3,30.27,NW,322,10.4,11.8,39,0.00,CLR,,0.00,WeatherDisplay:10.37,2013-02-01 17:03:00,
2013-02-01 12:08:00,34.1,9.9,30.29,West,269,19.6,19.6,36,0.00,CLR,,0.00,WeatherDisplay:10.37,2013-02-01 17:08:00,
2013-02-01 12:13:00,32.5,10.3,30.27,NW,322,10.4,11.8,39,0.00,CLR,,0.00,WeatherDisplay:10.37,2013-02-01 17:13:00,
2013-02-01 12:18:00,32.5,10.3,30.27,NW,322,10.4,11.8,39,0.00,CLR,,0.00,WeatherDisplay:10.37,2013-02-01 17:18:00,
2013-02-01 12:23:00,32.5,10.3,30.27,NW,322,10.4,11.8,39,0.00,CLR,,0.00,WeatherDisplay:10.37,2013-02-01 17:23:00,
2013-02-01 12:28:00,32.5,10.3,30.27,NW,322,10.4,11.8,39,0.00,CLR,,0.00,WeatherDisplay:10.37,2013-02-01 17:28:00,
2013-02-01 12:33:00,34.6,10.3,30.27,WNW,297,13.8,13.8,36,0.00,CLR,,0.00,WeatherDisplay:10.37,2013-02-01 17:33:00,
2013-02-01 12:38:00,34.7,9.8,30.28,West,279,16.1,16.1,35,0.00,CLR,,0.00,WeatherDisplay:10.37,2013-02-01 17:38:00,
2013-02-01 12:43:00,34.4,9.5,30.27,NW,314,15.0,15.0,35,0.00,CLR,,0.00,WeatherDisplay:10.37,2013-02-01 17:43:00,
2013-02-01 12:48:00,34.6,10.3,30.28,NW,325,17.0,17.0,36,0.00,CLR,,0.00,WeatherDisplay:10.37,2013-02-01 17:48:00,
2013-02-01 12:53:00,34.5,9.6,30.28,NW,323,12.7,12.8,35,0.00,CLR,,0.00,WeatherDisplay:10.37,2013-02-01 17:53:00,
2013-02-01 12:58:00,35.1,10.2,30.27,NNW,329,11.5,11.5,35,0.00,CLR,,0.00,WeatherDisplay:10.37,2013-02-01 17:58:00,
2013-02-01 13:03:00,35.1,10.2,30.27,NNW,331,4.6,8.7,35,0.00,CLR,,0.00,WeatherDisplay:10.37,2013-02-01 18:03:00,
2013-02-01 13:08:00,35.7,10.7,30.28,West,279,16.1,16.1,35,0.00,CLR,,0.00,WeatherDisplay:10.37,2013-02-01 18:08:00,
2013-02-01 13:13:00,35.5,9.9,30.27,North,355,16.1,16.1,34,0.00,CLR,,0.00,WeatherDisplay:10.37,2013-02-01 18:13:00,
2013-02-01 13:18:00,35.6,9.9,30.28,WNW,299,16.1,16.1,34,0.00,CLR,,0.00,WeatherDisplay:10.37,2013-02-01 18:18:00,
2013-02-01 13:23:00,35.1,10.2,30.27,NNW,331,4.6,8.7,35,0.00,CLR,,0.00,WeatherDisplay:10.37,2013-02-01 18:23:00,
2013-02-01 13:28:00,35.4,9.1,30.28,NNW,327,14.0,14.0,33,0.00,CLR,,0.00,WeatherDisplay:10.37,2013-02-01 18:28:00,
2013-02-01 13:33:00,35.7,10.0,30.28,NNW,333,15.0,15.0,34,0.00,CLR,,0.00,WeatherDisplay:10.37,2013-02-01 18:33:00,
2013-02-01 13:38:00,36.1,10.4,30.28,WNW,299,15.0,15.0,34,0.00,CLR,,0.00,WeatherDisplay:10.37,2013-02-01 18:38:00,
2013-02-01 13:43:00,35.9,8.9,30.28,North,360,13.8,13.8,32,0.00,CLR,,0.00,WeatherDisplay:10.37,2013-02-01 18:43:00,
2013-02-01 13:48:00,36.0,9.6,30.28,WNW,284,13.8,13.8,33,0.00,CLR,,0.00,WeatherDisplay:10.37,2013-02-01 18:48:00,
2013-02-01 13:53:00,35.4,9.8,30.28,WNW,297,10.4,11.9,34,0.00,CLR,,0.00,WeatherDisplay:10.37,2013-02-01 18:53:00,
2013-02-01 13:58:00,35.9,8.9,30.29,WNW,289,11.5,15.1,32,0.00,CLR,,0.00,WeatherDisplay:10.37,2013-02-01 18:58:00,
2013-02-01 14:03:00,35.4,7.7,30.29,West,265,19.6,19.6,31,0.00,CLR,,0.00,WeatherDisplay:10.37,2013-02-01 19:03:00,
2013-02-01 14:08:00,35.9,8.9,30.29,WNW,289,11.5,15.1,32,0.00,CLR,,0.00,WeatherDisplay:10.37,2013-02-01 19:08:00,
2013-02-01 14:13:00,35.7,10.0,30.29,NNW,333,2.3,7.2,34,0.00,CLR,,0.00,WeatherDisplay:10.37,2013-02-01 19:13:00,
2013-02-01 14:18:00,36.7,9.6,30.28,WNW,303,19.6,19.6,32,0.00,CLR,,0.00,WeatherDisplay:10.37,2013-02-01 19:18:00,
2013-02-01 14:23:00,35.7,10.0,30.29,NNW,333,2.3,7.2,34,0.00,CLR,,0.00,WeatherDisplay:10.37,2013-02-01 19:23:00,
2013-02-01 14:28:00,36.6,11.5,30.28,NW,306,15.0,15.0,35,0.00,CLR,,0.00,WeatherDisplay:10.37,2013-02-01 19:28:00,
2013-02-01 14:33:00,36.6,10.2,30.28,NW,309,17.3,17.3,33,0.00,CLR,,0.00,WeatherDisplay:10.37,2013-02-01 19:33:00,
2013-02-01 14:38:00,36.4,10.0,30.28,WNW,284,12.7,15.4,33,0.00,CLR,,0.00,WeatherDisplay:10.37,2013-02-01 19:38:00,
2013-02-01 14:43:00,36.2,9.1,30.28,WNW,287,15.0,15.0,32,0.00,CLR,,0.00,WeatherDisplay:10.37,2013-02-01 19:43:00,
2013-02-01 14:48:00,36.4,10.0,30.28,WNW,284,12.7,15.4,33,0.00,CLR,,0.00,WeatherDisplay:10.37,2013-02-01 19:48:00,
2013-02-01 14:53:00,36.4,10.0,30.28,WNW,284,12.7,15.4,33,0.00,CLR,,0.00,WeatherDisplay:10.37,2013-02-01 19:53:00,
2013-02-01 14:58:00,37.1,9.9,30.29,NNW,334,17.0,17.0,32,0.00,CLR,,0.00,WeatherDisplay:10.37,2013-02-01 19:58:00,
2013-02-01 15:03:00,36.4,10.0,30.28,WNW,284,12.7,15.4,33,0.00,CLR,,0.00,WeatherDisplay:10.37,2013-02-01 20:03:00,
2013-02-01 15:08:00,36.8,9.7,30.29,NW,306,12.7,12.7,32,0.00,CLR,,0.00,WeatherDisplay:10.37,2013-02-01 20:08:00,
2013-02-01 15:13:00,36.8,9.7,30.29,NW,315,4.6,9.1,32,0.00,CLR,,0.00,WeatherDisplay:10.37,2013-02-01 20:13:00,
2013-02-01 15:18:00,36.9,9.0,30.29,NW,319,4.6,11.2,31,0.00,CLR,,0.00,WeatherDisplay:10.37,2013-02-01 20:18:00,
2013-02-01 15:23:00,36.9,9.0,30.29,NW,319,4.6,11.2,31,0.00,CLR,,0.00,WeatherDisplay:10.37,2013-02-01 20:23:00,
2013-02-01 15:28:00,36.9,10.4,30.29,NW,317,12.0,12.0,33,0.00,CLR,,0.00,WeatherDisplay:10.37,2013-02-01 20:28:00,
2013-02-01 15:33:00,37.0,9.1,30.29,WNW,290,11.5,11.5,31,0.00,CLR,,0.00,WeatherDisplay:10.37,2013-02-01 20:33:00,
2013-02-01 15:38:00,37.1,8.5,30.29,NW,315,13.8,13.8,30,0.00,CLR,,0.00,WeatherDisplay:10.37,2013-02-01 20:38:00,
2013-02-01 15:43:00,37.2,8.6,30.29,NW,319,9.2,9.2,30,0.00,CLR,,0.00,WeatherDisplay:10.37,2013-02-01 20:43:00,
2013-02-01 15:48:00,37.1,8.5,30.29,NNE,18,8.1,10.9,30,0.00,CLR,,0.00,WeatherDisplay:10.37,2013-02-01 20:48:00,
2013-02-01 15:53:00,37.1,8.5,30.29,NNE,18,8.1,10.9,30,0.00,CLR,,0.00,WeatherDisplay:10.37,2013-02-01 20:53:00,
2013-02-01 15:58:00,37.1,8.5,30.29,WNW,296,6.9,9.2,30,0.00,CLR,,0.00,WeatherDisplay:10.37,2013-02-01 20:58:00,
2013-02-01 16:03:00,37.2,10.0,30.29,NNW,336,6.9,7.7,32,0.00,CLR,,0.00,WeatherDisplay:10.37,2013-02-01 21:03:00,
2013-02-01 16:08:00,37.2,8.6,30.29,NW,326,13.8,13.8,30,0.00,CLR,,0.00,WeatherDisplay:10.37,2013-02-01 21:08:00,
2013-02-01 16:13:00,37.1,9.9,30.29,NNW,340,10.4,10.4,32,0.00,CLR,,0.00,WeatherDisplay:10.37,2013-02-01 21:13:00,
2013-02-01 16:18:00,37.0,9.1,30.30,WNW,296,7.0,7.0,31,0.00,CLR,,0.00,WeatherDisplay:10.37,2013-02-01 21:18:00,
2013-02-01 16:23:00,37.1,9.2,30.30,NNW,329,11.5,11.5,31,0.00,CLR,,0.00,WeatherDisplay:10.37,2013-02-01 21:23:00,
2013-02-01 16:28:00,37.1,9.9,30.29,WNW,296,8.1,8.1,32,0.00,CLR,,0.00,WeatherDisplay:10.37,2013-02-01 21:28:00,
2013-02-01 16:33:00,37.1,9.9,30.30,NNW,327,11.5,11.5,32,0.00,CLR,,0.00,WeatherDisplay:10.37,2013-02-01 21:33:00,
2013-02-01 16:38:00,37.1,9.2,30.30,North,351,8.1,8.1,31,0.00,CLR,,0.00,WeatherDisplay:10.37,2013-02-01 21:38:00,
2013-02-01 16:43:00,36.9,9.7,30.30,North,9,10.4,10.4,32,0.00,CLR,,0.00,WeatherDisplay:10.37,2013-02-01 21:43:00,
2013-02-01 16:48:00,36.9,9.7,30.30,NW,323,11.5,11.5,32,0.00,CLR,,0.00,WeatherDisplay:10.37,2013-02-01 21:48:00,
2013-02-01 16:53:00,37.1,9.9,30.29,WNW,296,8.1,8.1,32,0.00,CLR,,0.00,WeatherDisplay:10.37,2013-02-01 21:53:00,
2013-02-01 16:58:00,37.1,9.9,30.29,WNW,296,8.1,8.1,32,0.00,CLR,,0.00,WeatherDisplay:10.37,2013-02-01 21:58:00,
2013-02-01 17:03:00,36.6,9.5,30.31,NNW,346,6.9,6.9,32,0.00,CLR,,0.00,WeatherDisplay:10.37,2013-02-01 22:03:00,
2013-02-01 17:08:00,36.5,8.7,30.31,NNW,335,9.2,9.2,31,0.00,CLR,,0.00,WeatherDisplay:10.37,2013-02-01 22:08:00,
2013-02-01 17:13:00,36.5,8.7,30.31,NNW,335,9.2,9.2,31,0.00,CLR,,0.00,WeatherDisplay:10.37,2013-02-01 22:13:00,
2013-02-01 17:18:00,36.5,8.7,30.31,NNW,335,9.2,9.2,31,0.00,CLR,,0.00,WeatherDisplay:10.37,2013-02-01 22:18:00,
2013-02-01 17:23:00,35.8,9.5,30.31,NW,319,9.2,9.2,33,0.00,CLR,,0.00,WeatherDisplay:10.37,2013-02-01 22:23:00,
2013-02-01 17:28:00,35.6,9.3,30.31,NW,317,5.8,5.8,33,0.00,CLR,,0.00,WeatherDisplay:10.37,2013-02-01 22:28:00,
2013-02-01 17:33:00,35.7,9.4,30.31,NNW,327,4.6,4.6,33,0.00,CLR,,0.00,WeatherDisplay:10.37,2013-02-01 22:33:00,
2013-02-01 17:38:00,35.0,8.7,30.32,North,5,5.8,5.8,33,0.00,CLR,,0.00,WeatherDisplay:10.37,2013-02-01 22:38:00,
2013-02-01 17:43:00,34.6,8.4,30.31,NW,325,6.9,6.9,33,0.00,CLR,,0.00,WeatherDisplay:10.37,2013-02-01 22:43:00,
2013-02-01 17:48:00,35.7,9.4,30.31,NNW,327,4.6,4.6,33,0.00,CLR,,0.00,WeatherDisplay:10.37,2013-02-01 22:48:00,
2013-02-01 17:53:00,34.1,8.6,30.32,NNW,327,3.5,3.5,34,0.00,CLR,,0.00,WeatherDisplay:10.37,2013-02-01 22:53:00,
2013-02-01 17:58:00,33.8,8.4,30.32,NNW,327,0.0,0.0,34,0.00,CLR,,0.00,WeatherDisplay:10.37,2013-02-01 22:58:00,
2013-02-01 18:03:00,34.4,8.2,30.32,NNW,327,3.5,3.5,33,0.00,CLR,,0.00,WeatherDisplay:10.37,2013-02-01 23:03:00,
2013-02-01 18:08:00,33.3,9.8,30.32,NNW,327,0.0,0.0,37,0.00,CLR,,0.00,WeatherDisplay:10.37,2013-02-01 23:08:00,
2013-02-01 18:13:00,32.8,8.7,30.33,NNW,327,0.0,0.0,36,0.00,CLR,,0.00,WeatherDisplay:10.37,2013-02-01 23:13:00,
2013-02-01 18:18:00,34.4,8.2,30.32,NNW,327,3.5,3.5,33,0.00,CLR,,0.00,WeatherDisplay:10.37,2013-02-01 23:18:00,
2013-02-01 18:23:00,34.4,8.2,30.32,NNW,327,3.5,3.5,33,0.00,CLR,,0.00,WeatherDisplay:10.37,2013-02-01 23:23:00,
2013-02-01 18:28:00,34.4,8.2,30.32,NNW,327,3.5,3.5,33,0.00,CLR,,0.00,WeatherDisplay:10.37,2013-02-01 23:28:00,
2013-02-01 18:33:00,31.5,9.4,30.33,North,360,3.5,3.5,39,0.00,CLR,,0.00,WeatherDisplay:10.37,2013-02-01 23:33:00,
2013-02-01 18:38:00,31.4,9.3,30.33,North,360,2.3,2.3,39,0.00,CLR,,0.00,WeatherDisplay:10.37,2013-02-01 23:38:00,
2013-02-01 18:43:00,31.2,9.6,30.33,North,360,3.5,3.5,40,0.00,CLR,,0.00,WeatherDisplay:10.37,2013-02-01 23:43:00,
2013-02-01 18:48:00,34.4,8.2,30.32,NNW,327,3.5,3.5,33,0.00,CLR,,0.00,WeatherDisplay:10.37,2013-02-01 23:48:00,
2013-02-01 18:53:00,34.4,8.2,30.32,NNW,327,3.5,3.5,33,0.00,CLR,,0.00,WeatherDisplay:10.37,2013-02-01 23:53:00,
2013-02-01 18:58:00,30.6,9.7,30.34,North,360,0.0,0.0,41,0.00,CLR,,0.00,WeatherDisplay:10.37,2013-02-01 23:58:00,
2013-02-01 19:03:00,30.3,9.4,30.34,North,360,2.0,2.0,41,0.00,CLR,,0.00,WeatherDisplay:10.37,2013-02-02 00:03:00,
2013-02-01 19:08:00,34.4,8.2,30.32,NNW,327,3.5,3.5,33,0.00,CLR,,0.00,WeatherDisplay:10.37,2013-02-02 00:08:00,
2013-02-01 19:13:00,34.4,8.2,30.32,NNW,327,3.5,3.5,33,0.00,CLR,,0.00,WeatherDisplay:10.37,2013-02-02 00:13:00,
2013-02-01 19:18:00,34.4,8.2,30.32,NNW,327,3.5,3.5,33,0.00,CLR,,0.00,WeatherDisplay:10.37,2013-02-02 00:18:00,
2013-02-01 19:23:00,34.4,8.2,30.32,NNW,327,3.5,3.5,33,0.00,CLR,,0.00,WeatherDisplay:10.37,2013-02-02 00:23:00,
2013-02-01 19:28:00,34.4,8.2,30.32,NNW,327,3.5,3.5,33,0.00,CLR,,0.00,WeatherDisplay:10.37,2013-02-02 00:28:00,
2013-02-01 19:33:00,29.3,9.5,30.35,North,360,0.0,0.0,43,0.00,CLR,,0.00,WeatherDisplay:10.37,2013-02-02 00:33:00,
2013-02-01 19:38:00,29.0,9.8,30.35,North,5,2.3,0.0,44,0.00,CLR,,0.00,WeatherDisplay:10.37,2013-02-02 00:38:00,
2013-02-01 19:43:00,28.7,10.0,30.35,North,5,3.0,3.0,45,0.00,CLR,,0.00,WeatherDisplay:10.37,2013-02-02 00:43:00,
2013-02-01 19:48:00,34.4,8.2,30.32,NNW,327,3.5,3.5,33,0.00,CLR,,0.00,WeatherDisplay:10.37,2013-02-02 00:48:00,
2013-02-01 19:53:00,34.4,8.2,30.32,NNW,327,3.5,3.5,33,0.00,CLR,,0.00,WeatherDisplay:10.37,2013-02-02 00:53:00,
2013-02-01 19:58:00,28.5,9.8,30.36,North,5,0.0,0.0,45,0.00,CLR,,0.00,WeatherDisplay:10.37,2013-02-02 00:58:00,
2013-02-01 20:03:00,28.5,9.8,30.37,North,360,0.0,0.0,45,0.00,CLR,,0.00,WeatherDisplay:10.37,2013-02-02 01:03:00,
2013-02-01 20:08:00,28.5,9.8,30.36,North,5,0.0,0.0,45,0.00,CLR,,0.00,WeatherDisplay:10.37,2013-02-02 01:08:00,
2013-02-01 20:13:00,28.5,9.8,30.36,North,5,0.0,0.0,45,0.00,CLR,,0.00,WeatherDisplay:10.37,2013-02-02 01:13:00,
2013-02-01 20:18:00,28.1,10.4,30.37,North,5,0.0,0.0,47,0.00,CLR,,0.00,WeatherDisplay:10.37,2013-02-02 01:18:00,
2013-02-01 20:23:00,28.0,9.9,30.36,North,5,3.5,3.5,46,0.00,CLR,,0.00,WeatherDisplay:10.37,2013-02-02 01:23:00,
2013-02-01 20:28:00,27.9,10.2,30.36,North,5,0.0,0.0,47,0.00,CLR,,0.00,WeatherDisplay:10.37,2013-02-02 01:28:00,
2013-02-01 20:33:00,28.0,9.9,30.37,North,360,2.3,2.3,46,0.00,CLR,,0.00,WeatherDisplay:10.37,2013-02-02 01:33:00,
2013-02-01 20:38:00,28.0,9.9,30.37,North,360,2.3,2.3,46,0.00,CLR,,0.00,WeatherDisplay:10.37,2013-02-02 01:38:00,
2013-02-01 20:43:00,27.6,10.4,30.37,North,360,0.0,0.0,48,0.00,CLR,,0.00,WeatherDisplay:10.37,2013-02-02 01:43:00,
2013-02-01 20:48:00,27.6,10.4,30.37,North,5,0.0,0.0,48,0.00,CLR,,0.00,WeatherDisplay:10.37,2013-02-02 01:48:00,
2013-02-01 20:53:00,27.5,10.8,30.37,NE,44,0.0,0.0,49,0.00,CLR,,0.00,WeatherDisplay:10.37,2013-02-02 01:53:00,
2013-02-01 20:58:00,27.3,10.6,30.37,NNE,19,4.0,4.0,49,0.00,CLR,,0.00,WeatherDisplay:10.37,2013-02-02 01:58:00,
2013-02-01 21:03:00,27.3,10.6,30.37,North,9,2.3,2.3,49,0.00,CLR,,0.00,WeatherDisplay:10.37,2013-02-02 02:03:00,
2013-02-01 21:08:00,27.3,10.6,30.37,NNE,19,3.5,3.5,49,0.00,CLR,,0.00,WeatherDisplay:10.37,2013-02-02 02:08:00,
2013-02-01 21:13:00,27.1,10.4,30.37,North,9,0.0,0.0,49,0.00,CLR,,0.00,WeatherDisplay:10.37,2013-02-02 02:13:00,
2013-02-01 21:18:00,27.0,10.4,30.37,North,9,3.5,0.0,49,0.00,CLR,,0.00,WeatherDisplay:10.37,2013-02-02 02:18:00,
2013-02-01 21:23:00,27.1,10.4,30.37,North,9,0.0,0.0,49,0.00,CLR,,0.00,WeatherDisplay:10.37,2013-02-02 02:23:00,
2013-02-01 21:28:00,27.1,10.4,30.37,North,9,0.0,0.0,49,0.00,CLR,,0.00,WeatherDisplay:10.37,2013-02-02 02:28:00,
2013-02-01 21:33:00,27.1,10.4,30.37,North,9,0.0,0.0,49,0.00,CLR,,0.00,WeatherDisplay:10.37,2013-02-02 02:33:00,
2013-02-01 21:38:00,26.6,10.0,30.37,North,5,0.0,0.0,49,0.00,CLR,,0.00,WeatherDisplay:10.37,2013-02-02 02:38:00,
2013-02-01 21:43:00,26.5,10.3,30.37,North,360,0.0,0.0,50,0.00,CLR,,0.00,WeatherDisplay:10.37,2013-02-02 02:43:00,
2013-02-01 21:48:00,26.5,10.3,30.37,ENE,61,2.3,2.3,50,0.00,CLR,,0.00,WeatherDisplay:10.37,2013-02-02 02:48:00,
2013-02-01 21:53:00,26.4,10.3,30.38,ENE,62,0.0,0.0,50,0.00,CLR,,0.00,WeatherDisplay:10.37,2013-02-02 02:53:00,
2013-02-01 21:58:00,26.4,10.3,30.38,ENE,62,0.0,0.0,50,0.00,CLR,,0.00,WeatherDisplay:10.37,2013-02-02 02:58:00,
2013-02-01 22:03:00,26.4,10.3,30.38,ENE,62,0.0,0.0,50,0.00,CLR,,0.00,WeatherDisplay:10.37,2013-02-02 03:03:00,
2013-02-01 22:08:00,26.2,9.6,30.38,ENE,62,0.0,0.0,49,0.00,CLR,,0.00,WeatherDisplay:10.37,2013-02-02 03:08:00,
2013-02-01 22:13:00,26.2,9.6,30.38,ENE,62,0.0,0.0,49,0.00,CLR,,0.00,WeatherDisplay:10.37,2013-02-02 03:13:00,
2013-02-01 22:18:00,26.4,10.3,30.38,ENE,62,0.0,0.0,50,0.00,CLR,,0.00,WeatherDisplay:10.37,2013-02-02 03:18:00,
2013-02-01 22:23:00,26.4,10.3,30.38,ENE,62,0.0,0.0,50,0.00,CLR,,0.00,WeatherDisplay:10.37,2013-02-02 03:23:00,
2013-02-01 22:28:00,26.4,10.3,30.38,ENE,62,0.0,0.0,50,0.00,CLR,,0.00,WeatherDisplay:10.37,2013-02-02 03:28:00,
2013-02-01 22:33:00,26.4,10.3,30.38,ENE,62,0.0,0.0,50,0.00,CLR,,0.00,WeatherDisplay:10.37,2013-02-02 03:33:00,
2013-02-01 22:38:00,26.4,10.3,30.38,ENE,62,0.0,0.0,50,0.00,CLR,,0.00,WeatherDisplay:10.37,2013-02-02 03:38:00,
2013-02-01 22:43:00,25.7,10.0,30.37,ENE,61,0.0,0.0,51,0.00,CLR,,0.00,WeatherDisplay:10.37,2013-02-02 03:43:00,
2013-02-01 22:48:00,26.4,10.3,30.38,ENE,62,0.0,0.0,50,0.00,CLR,,0.00,WeatherDisplay:10.37,2013-02-02 03:48:00,
2013-02-01 22:53:00,26.4,10.3,30.38,ENE,62,0.0,0.0,50,0.00,CLR,,0.00,WeatherDisplay:10.37,2013-02-02 03:53:00,
2013-02-01 22:58:00,26.4,10.3,30.38,ENE,62,0.0,0.0,50,0.00,CLR,,0.00,WeatherDisplay:10.37,2013-02-02 03:58:00,
2013-02-01 23:03:00,25.6,10.0,30.38,ENE,62,0.0,0.0,51,0.00,CLR,,0.00,WeatherDisplay:10.37,2013-02-02 04:03:00,
2013-02-01 23:08:00,26.4,10.3,30.38,ENE,62,0.0,0.0,50,0.00,CLR,,0.00,WeatherDisplay:10.37,2013-02-02 04:08:00,
2013-02-01 23:13:00,26.4,10.3,30.38,ENE,62,0.0,0.0,50,0.00,CLR,,0.00,WeatherDisplay:10.37,2013-02-02 04:13:00,
2013-02-01 23:18:00,25.6,10.0,30.38,ENE,61,0.0,0.0,51,0.00,CLR,,0.00,WeatherDisplay:10.37,2013-02-02 04:18:00,
2013-02-01 23:23:00,25.6,10.0,30.38,ENE,61,0.0,0.0,51,0.00,CLR,,0.00,WeatherDisplay:10.37,2013-02-02 04:23:00,
2013-02-01 23:28:00,25.6,10.0,30.38,ENE,61,0.0,0.0,51,0.00,CLR,,0.00,WeatherDisplay:10.37,2013-02-02 04:28:00,
2013-02-01 23:33:00,25.6,10.0,30.38,ENE,61,0.0,0.0,51,0.00,CLR,,0.00,WeatherDisplay:10.37,2013-02-02 04:33:00,
2013-02-01 23:38:00,25.4,9.8,30.39,ENE,61,2.0,2.0,51,0.00,CLR,,0.00,WeatherDisplay:10.37,2013-02-02 04:38:00,
2013-02-01 23:43:00,25.6,10.0,30.38,ENE,61,0.0,0.0,51,0.00,CLR,,0.00,WeatherDisplay:10.37,2013-02-02 04:43:00,
2013-02-01 23:48:00,25.6,10.0,30.38,ENE,61,0.0,0.0,51,0.00,CLR,,0.00,WeatherDisplay:10.37,2013-02-02 04:48:00,
2013-02-01 23:53:00,25.3,10.1,30.39,ENE,62,0.0,0.0,52,0.00,CLR,,0.00,WeatherDisplay:10.37,2013-02-02 04:53:00,
2013-02-01 23:58:00,25.6,10.0,30.38,ENE,61,0.0,0.0,51,0.00,CLR,,0.00,WeatherDisplay:10.37,2013-02-02 04:58:00,